�N����,����,�~����,�C��,���x,�C��,����,���ϕ���,�ő�u�ԕ���,�ő厞����,���˗�,�I�_���x,�n�����x,�ő啗���N��,DTYPE
"17/09/15","00:10",0.0,16.2,91.0,1012.3,316.7,1.0,1.7,319.1,0.00,14.8,22.3,"00:04:16",1
"17/09/15","00:20",0.0,16.1,91.3,1012.6,308.0,0.8,1.7,322.9,0.00,14.7,22.5,"00:13:52",1
"17/09/15","00:30",0.0,16.0,91.6,1012.6,324.8,1.0,1.3,311.6,0.00,14.7,22.4,"00:25:52",1
"17/09/15","00:40",0.0,16.1,92.1,1012.6,334.4,1.1,1.6,340.9,0.00,14.9,22.4,"00:33:12",1
"17/09/15","00:50",0.0,16.1,91.8,1012.6,309.1,1.0,1.6,310.2,0.00,14.8,22.1,"00:49:20",1
"17/09/15","01:00",0.0,16.2,91.8,1012.3,311.4,1.0,1.8,317.4,0.00,14.9,22.1,"00:50:48",1
"17/09/15","01:10",0.0,16.2,91.8,1012.6,322.0,0.8,1.6,343.1,0.00,14.9,22.2,"01:08:56",1
"17/09/15","01:20",0.0,16.3,91.6,1012.6,338.3,1.1,1.7,313.1,0.00,15.0,22.1,"01:18:16",1
"17/09/15","01:30",0.0,16.5,91.2,1012.6,331.5,1.7,2.7,338.0,0.00,15.1,22.0,"01:29:20",1
"17/09/15","01:40",0.0,16.6,90.6,1012.3,330.3,1.6,2.4,331.2,0.00,15.1,22.0,"01:33:04",1
"17/09/15","01:50",0.0,16.7,90.0,1012.3,326.0,1.7,2.7,326.0,0.00,15.1,21.9,"01:43:12",1
"17/09/15","02:00",0.0,16.8,89.3,1012.1,324.0,2.1,2.7,314.9,0.00,15.1,22.0,"01:54:32",1
"17/09/15","02:10",0.0,16.8,88.6,1012.8,324.9,2.0,3.3,318.1,0.00,14.9,22.0,"02:05:52",1
"17/09/15","02:20",0.0,16.8,88.2,1012.6,322.7,1.8,2.6,325.9,0.00,14.9,22.0,"02:10:56",1
"17/09/15","02:30",0.0,16.8,87.9,1012.8,320.5,1.5,2.7,327.3,0.00,14.8,22.0,"02:29:52",1
"17/09/15","02:40",0.0,16.7,88.0,1012.8,323.0,1.7,2.7,334.6,0.00,14.7,22.0,"02:38:32",1
"17/09/15","02:50",0.0,16.7,87.9,1012.3,325.4,2.0,3.2,334.7,0.00,14.7,21.7,"02:40:24",1
"17/09/15","03:00",0.0,16.7,87.6,1012.8,318.4,1.6,2.8,329.0,0.00,14.7,21.7,"02:53:44",1
"17/09/15","03:10",0.0,16.6,87.7,1012.3,319.6,1.5,2.4,340.8,0.00,14.6,21.8,"03:01:52",1
"17/09/15","03:20",0.0,16.5,87.9,1012.6,305.9,1.2,2.8,329.9,0.00,14.5,21.7,"03:13:04",1
"17/09/15","03:30",0.0,16.3,88.1,1012.8,305.6,0.7,1.4,305.0,0.00,14.4,21.5,"03:21:12",1
"17/09/15","03:40",0.0,16.1,88.4,1013.0,301.6,0.5,1.4,325.4,0.00,14.2,21.6,"03:32:16",1
"17/09/15","03:50",0.0,15.8,89.1,1012.8,294.1,0.3,1.0,304.8,0.00,14.0,21.7,"03:48:08",1
"17/09/15","04:00",0.0,15.6,90.0,1013.0,303.6,1.1,1.8,324.7,0.00,14.0,21.5,"03:54:16",1
"17/09/15","04:10",0.0,15.6,90.7,1012.8,316.8,0.8,1.4,314.3,0.00,14.1,21.6,"04:02:48",1
"17/09/15","04:20",0.0,15.7,90.8,1012.8,316.7,1.2,1.8,328.8,0.00,14.2,21.6,"04:11:20",1
"17/09/15","04:30",0.0,15.8,90.7,1012.6,311.2,1.0,2.0,311.5,0.00,14.3,21.4,"04:26:32",1
"17/09/15","04:40",0.0,16.0,90.5,1012.6,302.9,1.5,2.5,297.4,0.00,14.5,21.3,"04:36:00",1
"17/09/15","04:50",0.0,16.1,89.9,1013.0,271.1,1.0,1.7,303.4,0.00,14.5,21.4,"04:40:48",1
"17/09/15","05:00",0.0,16.0,89.6,1013.0,284.1,0.8,1.3,284.7,0.00,14.3,21.4,"04:59:36",1
"17/09/15","05:10",0.0,15.9,89.7,1013.0,300.5,1.1,1.4,296.4,0.00,14.3,21.2,"05:06:56",1
"17/09/15","05:20",0.0,15.7,90.0,1013.3,307.1,1.1,1.8,329.1,0.00,14.1,21.3,"05:11:12",1
"17/09/15","05:30",0.0,15.7,90.3,1012.8,311.0,1.2,2.8,312.8,0.00,14.2,21.3,"05:29:12",1
"17/09/15","05:40",0.0,15.8,90.1,1013.0,281.9,0.8,1.4,324.7,0.00,14.2,21.0,"05:31:28",1
"17/09/15","05:50",0.0,16.0,90.1,1013.3,278.6,1.0,1.3,262.9,0.00,14.4,21.2,"05:40:24",1
"17/09/15","06:00",0.0,16.0,90.1,1013.0,291.9,1.2,2.2,317.4,0.00,14.4,21.2,"05:54:32",1
"17/09/15","06:10",0.0,16.2,89.8,1013.3,274.5,1.0,1.7,259.0,0.00,14.6,20.9,"06:03:20",1
"17/09/15","06:20",0.0,16.4,89.7,1013.3,284.0,1.1,1.6,304.3,0.01,14.7,21.1,"06:19:20",1
"17/09/15","06:30",0.0,16.6,89.2,1013.3,300.0,1.2,2.0,309.2,0.01,14.9,21.2,"06:25:20",1
"17/09/15","06:40",0.0,17.1,88.5,1013.3,283.5,1.2,2.4,310.8,0.02,15.2,21.1,"06:35:28",1
"17/09/15","06:50",0.0,17.4,88.1,1013.5,281.7,1.1,2.0,304.0,0.04,15.5,21.1,"06:41:20",1
"17/09/15","07:00",0.0,18.0,86.9,1013.5,278.5,1.2,1.8,310.8,0.06,15.8,21.1,"06:55:52",1
"17/09/15","07:10",0.0,18.4,84.7,1013.5,275.3,1.0,1.4,250.0,0.06,15.8,21.4,"07:00:48",1
"17/09/15","07:20",0.0,19.1,82.5,1013.3,299.7,1.1,1.9,318.6,0.08,16.1,21.5,"07:15:20",1
"17/09/15","07:30",0.0,19.7,80.9,1013.3,289.0,1.0,1.6,318.8,0.09,16.4,21.3,"07:24:56",1
"17/09/15","07:40",0.0,20.2,78.6,1013.5,309.0,1.5,3.5,330.4,0.11,16.4,21.6,"07:30:40",1
"17/09/15","07:50",0.0,20.9,77.8,1013.8,309.4,1.5,2.8,329.3,0.13,16.9,21.4,"07:43:28",1
"17/09/15","08:00",0.0,21.4,74.7,1013.8,317.3,1.0,2.1,348.2,0.16,16.8,21.7,"07:57:52",1
"17/09/15","08:10",0.0,21.7,74.2,1013.3,304.0,1.0,2.1,315.1,0.17,16.9,21.6,"08:09:20",1
"17/09/15","08:20",0.0,21.9,74.0,1013.0,270.8,0.8,1.7,355.2,0.17,17.1,21.7,"08:11:44",1
"17/09/15","08:30",0.0,22.2,69.1,1012.8,285.6,1.0,1.4,313.2,0.18,16.3,21.8,"08:24:00",1
"17/09/15","08:40",0.0,22.3,68.1,1013.3,276.9,1.2,2.5,228.6,0.18,16.2,22.1,"08:34:00",1
"17/09/15","08:50",0.0,22.8,66.3,1012.8,287.5,1.0,2.1,345.2,0.22,16.2,22.1,"08:40:48",1
"17/09/15","09:00",0.0,23.2,64.8,1012.8,262.5,0.8,2.6,310.3,0.23,16.3,22.2,"08:54:00",1
"17/09/15","09:10",0.0,23.5,66.4,1012.6,323.0,1.3,2.7,349.6,0.26,16.9,22.4,"09:08:24",1
"17/09/15","09:20",0.0,24.1,61.7,1012.6,347.5,1.0,2.1,0.8,0.27,16.3,22.6,"09:16:48",1
"17/09/15","09:30",0.0,23.8,60.2,1012.6,102.2,0.8,2.9,202.7,0.28,15.7,22.6,"09:28:00",1
"17/09/15","09:40",0.0,24.6,59.6,1012.3,80.2,0.7,2.4,196.4,0.33,16.3,22.5,"09:34:56",1
"17/09/15","09:50",0.0,24.4,60.5,1012.1,307.2,0.6,1.4,28.9,0.29,16.3,22.8,"09:40:16",1
"17/09/15","10:00",0.0,25.1,58.7,1011.6,325.1,1.0,2.6,286.9,0.39,16.5,23.0,"09:57:36",1
"17/09/15","10:10",0.0,24.5,56.8,1011.9,340.3,2.1,4.7,340.3,0.34,15.4,22.9,"10:00:40",1
"17/09/15","10:20",0.0,24.5,56.4,1011.4,352.2,2.1,5.1,305.9,0.32,15.3,23.2,"10:19:36",1
"17/09/15","10:30",0.0,24.8,54.2,1011.4,350.1,2.1,4.2,352.9,0.34,15.0,23.3,"10:21:04",1
"17/09/15","10:40",0.0,25.2,55.4,1011.2,345.5,1.8,5.2,343.9,0.36,15.7,23.5,"10:32:00",1
"17/09/15","10:50",0.0,25.4,55.3,1011.2,346.1,2.0,4.7,353.8,0.38,15.8,23.6,"10:43:12",1
"17/09/15","11:00",0.0,25.4,54.6,1010.4,348.6,1.6,4.7,355.5,0.36,15.6,23.6,"10:56:16",1
"17/09/15","11:10",0.0,25.3,52.5,1010.0,2.6,1.8,4.5,349.0,0.34,14.9,23.6,"11:03:20",1
"17/09/15","11:20",0.0,25.0,52.1,1010.4,351.8,2.5,6.7,326.8,0.30,14.5,23.7,"11:17:28",1
"17/09/15","11:30",0.0,25.4,50.1,1010.4,8.0,1.8,5.2,53.7,0.31,14.3,24.0,"11:29:20",1
"17/09/15","11:40",0.0,25.3,51.7,1010.2,11.4,2.0,4.2,16.6,0.31,14.7,24.0,"11:38:24",1
"17/09/15","11:50",0.0,25.2,50.7,1010.4,356.9,2.2,4.4,324.8,0.31,14.3,24.0,"11:45:04",1
"17/09/15","12:00",0.0,25.2,52.0,1010.2,347.8,2.8,5.7,347.5,0.31,14.7,23.8,"11:58:16",1
"17/09/15","12:10",0.0,25.6,49.8,1010.0,8.5,2.2,4.9,353.2,0.38,14.4,24.0,"12:01:12",1
"17/09/15","12:20",0.0,25.8,49.2,1010.0,5.4,2.0,4.1,337.8,0.37,14.4,24.4,"12:16:32",1
"17/09/15","12:30",0.0,25.5,51.1,1009.7,355.2,2.0,4.5,350.0,0.32,14.7,24.1,"12:20:48",1
"17/09/15","12:40",0.0,25.7,50.6,1009.7,11.0,2.0,5.2,347.8,0.33,14.7,24.1,"12:30:48",1
"17/09/15","12:50",0.0,25.9,50.1,1009.3,18.9,1.6,3.4,44.1,0.36,14.8,24.3,"12:48:48",1
"17/09/15","13:00",0.0,25.6,52.5,1009.3,348.2,2.1,4.5,348.3,0.31,15.2,24.5,"12:58:16",1
"17/09/15","13:10",0.0,25.5,53.3,1009.5,346.7,2.3,4.8,356.7,0.34,15.4,24.6,"13:01:20",1
"17/09/15","13:20",0.0,25.4,52.5,1009.0,335.6,2.1,5.6,349.8,0.33,15.0,24.6,"13:18:48",1
"17/09/15","13:30",0.0,25.0,52.7,1009.3,339.3,2.6,6.0,347.0,0.28,14.7,24.7,"13:27:12",1
"17/09/15","13:40",0.0,24.7,55.3,1009.3,337.3,2.6,4.5,341.8,0.22,15.2,24.6,"13:37:28",1
"17/09/15","13:50",0.0,25.0,51.9,1009.3,349.5,1.5,3.2,349.8,0.22,14.5,24.6,"13:43:28",1
"17/09/15","14:00",0.0,24.8,53.3,1009.5,337.3,2.1,5.1,336.3,0.28,14.7,24.5,"13:56:32",1
"17/09/15","14:10",0.0,24.9,55.4,1009.3,338.4,1.7,3.4,333.3,0.21,15.4,24.6,"14:08:56",1
"17/09/15","14:20",0.0,24.8,52.9,1009.3,343.3,2.1,4.2,328.6,0.22,14.6,24.6,"14:15:12",1
"17/09/15","14:30",0.0,24.7,52.9,1009.0,352.4,1.5,3.6,351.1,0.18,14.5,24.7,"14:26:40",1
"17/09/15","14:40",0.0,24.6,53.9,1009.3,359.4,1.6,3.9,4.6,0.16,14.7,24.9,"14:31:04",1
"17/09/15","14:50",0.0,24.7,54.4,1009.3,352.5,1.7,3.3,15.2,0.20,14.9,24.6,"14:41:52",1
"17/09/15","15:00",0.0,24.4,54.6,1009.3,339.7,2.1,3.6,352.5,0.20,14.7,24.6,"14:53:12",1
"17/09/15","15:10",0.0,24.1,55.5,1009.3,341.9,2.3,4.5,325.0,0.17,14.7,24.6,"15:03:52",1
"17/09/15","15:20",0.0,24.1,57.4,1009.3,343.8,2.1,5.1,342.7,0.15,15.2,24.5,"15:16:40",1
"17/09/15","15:30",0.0,24.0,58.0,1009.3,343.4,2.0,4.5,351.0,0.15,15.3,24.4,"15:22:08",1
"17/09/15","15:40",0.0,23.6,58.1,1009.3,346.7,2.3,5.0,337.7,0.13,14.9,24.5,"15:36:16",1
"17/09/15","15:50",0.0,23.6,58.0,1009.5,346.2,2.0,4.5,337.4,0.12,14.9,24.4,"15:49:28",1
"17/09/15","16:00",0.0,23.4,60.7,1009.5,346.6,2.3,5.5,20.6,0.11,15.4,24.3,"15:55:04",1
"17/09/15","16:10",0.0,23.4,59.9,1009.5,344.8,2.0,4.8,333.9,0.09,15.2,24.3,"16:06:32",1
"17/09/15","16:20",0.0,23.3,60.4,1009.5,339.7,2.1,5.6,335.7,0.08,15.2,24.3,"16:12:40",1
"17/09/15","16:30",0.0,23.2,61.9,1009.5,338.6,2.1,4.3,327.1,0.08,15.5,24.4,"16:20:56",1
"17/09/15","16:40",0.0,23.0,62.3,1009.5,339.6,2.3,4.1,340.1,0.06,15.4,24.1,"16:34:56",1
"17/09/15","16:50",0.0,22.7,63.5,1009.7,340.1,2.5,5.0,347.1,0.05,15.5,24.0,"16:47:52",1
"17/09/15","17:00",0.0,22.6,65.2,1009.5,339.8,2.3,4.7,341.7,0.05,15.8,24.2,"16:58:24",1
"17/09/15","17:10",0.0,22.4,65.2,1010.0,334.8,2.1,4.8,330.7,0.05,15.6,24.3,"17:06:00",1
"17/09/15","17:20",0.0,22.3,66.0,1009.5,337.4,2.1,4.5,337.6,0.03,15.7,23.9,"17:14:32",1
"17/09/15","17:30",0.0,21.9,66.9,1010.2,337.5,2.1,4.4,323.2,0.01,15.5,23.8,"17:25:04",1
"17/09/15","17:40",0.0,21.6,67.5,1010.0,335.4,2.3,4.4,343.7,0.00,15.4,23.9,"17:30:48",1
"17/09/15","17:50",0.0,21.3,68.1,1009.7,338.9,2.1,4.4,334.4,0.00,15.2,23.8,"17:48:48",1
"17/09/15","18:00",0.0,21.0,68.6,1010.2,341.2,2.3,5.1,339.7,0.00,15.0,23.6,"17:54:00",1
"17/09/15","18:10",0.0,20.8,69.0,1010.2,342.6,2.3,6.6,345.2,0.00,14.9,23.6,"18:04:48",1
"17/09/15","18:20",0.0,20.5,69.3,1010.2,339.0,2.3,5.8,337.9,0.00,14.7,23.4,"18:19:44",1
"17/09/15","18:30",0.0,20.3,69.7,1010.2,338.0,2.3,5.1,348.2,0.00,14.6,23.4,"18:28:40",1
"17/09/15","18:40",0.0,20.2,70.0,1010.2,339.1,2.3,4.2,337.8,0.00,14.6,23.6,"18:33:12",1
"17/09/15","18:50",0.0,20.0,70.4,1010.2,338.0,2.0,3.9,337.0,0.00,14.5,23.3,"18:44:24",1
"17/09/15","19:00",0.0,19.9,71.0,1010.7,334.3,2.0,4.7,322.7,0.00,14.5,23.2,"18:57:20",1
"17/09/15","19:10",0.0,19.8,71.4,1010.4,330.4,2.2,4.0,317.3,0.00,14.5,23.1,"19:08:16",1
"17/09/15","19:20",0.0,19.8,71.5,1010.9,309.1,1.5,2.8,333.2,0.00,14.5,23.1,"19:12:32",1
"17/09/15","19:30",0.0,19.7,71.5,1010.9,296.8,0.8,2.1,288.9,0.00,14.4,23.0,"19:20:56",1
"17/09/15","19:40",0.0,19.3,73.4,1011.4,281.8,0.7,1.6,301.7,0.00,14.5,22.9,"19:36:24",1
"17/09/15","19:50",0.0,19.0,74.2,1011.2,284.7,0.8,2.0,325.1,0.00,14.3,22.8,"19:48:24",1
"17/09/15","20:00",0.0,19.1,74.8,1010.9,278.4,1.3,2.1,267.9,0.00,14.6,22.7,"19:50:02",1
"17/09/15","20:10",0.0,19.1,75.6,1011.2,289.1,1.3,2.5,318.4,0.00,14.7,22.7,"20:06:16",1
"17/09/15","20:20",0.0,19.2,75.8,1010.7,287.1,1.5,2.5,308.6,0.00,14.9,22.6,"20:14:16",1
"17/09/15","20:30",0.0,19.0,75.7,1011.2,279.5,0.8,1.7,249.6,0.00,14.7,22.6,"20:28:00",1
"17/09/15","20:40",0.0,18.8,76.8,1011.4,283.4,1.3,2.2,318.2,0.00,14.7,22.6,"20:36:48",1
"17/09/15","20:50",0.0,18.6,77.8,1010.9,292.1,1.1,1.6,302.2,0.00,14.7,22.4,"20:49:36",1
"17/09/15","21:00",0.0,18.5,78.2,1011.2,294.2,1.5,2.4,318.6,0.00,14.7,22.4,"20:59:36",1
"17/09/15","21:10",0.0,18.6,78.2,1010.9,292.0,1.3,2.2,245.5,0.00,14.8,22.2,"21:08:24",1
"17/09/15","21:20",0.0,18.6,78.3,1010.7,299.9,1.3,2.1,333.6,0.00,14.8,22.2,"21:15:28",1
"17/09/15","21:30",0.0,18.7,78.8,1010.7,284.3,1.2,2.0,306.3,0.00,15.0,22.2,"21:24:40",1
"17/09/15","21:40",0.0,18.6,79.0,1011.2,308.6,1.3,2.0,316.5,0.00,14.9,22.1,"21:30:56",1
"17/09/15","21:50",0.0,18.5,79.6,1011.2,313.9,1.6,2.4,331.0,0.00,14.9,22.1,"21:46:48",1
"17/09/15","22:00",0.0,18.5,79.9,1010.9,309.7,1.8,3.4,324.4,0.00,15.0,22.2,"21:59:52",1
"17/09/15","22:10",0.0,18.6,79.4,1010.9,321.5,2.5,4.0,334.9,0.00,15.0,22.2,"22:03:20",1
"17/09/15","22:20",0.0,18.8,79.2,1011.2,331.4,2.7,4.1,348.5,0.00,15.2,22.2,"22:16:40",1
"17/09/15","22:30",0.0,18.8,79.7,1011.2,332.9,1.8,3.4,319.2,0.00,15.3,21.9,"22:20:40",1
"17/09/15","22:40",0.0,18.5,80.5,1010.9,330.1,2.0,3.1,336.7,0.00,15.1,22.0,"22:39:28",1
"17/09/15","22:50",0.0,18.5,80.6,1010.9,328.6,2.7,4.4,344.8,0.00,15.1,22.0,"22:46:48",1
"17/09/15","23:00",0.0,18.5,80.3,1010.7,309.8,2.1,4.9,332.6,0.00,15.1,21.9,"22:51:36",1
"17/09/15","23:10",0.0,18.5,80.3,1010.4,323.9,2.8,4.4,328.1,0.00,15.1,21.9,"23:08:24",1
"17/09/15","23:20",0.0,18.6,79.8,1010.7,314.9,2.3,5.5,327.1,0.00,15.1,22.0,"23:10:08",1
"17/09/15","23:30",0.0,18.6,80.0,1010.4,321.9,2.7,4.5,337.2,0.00,15.1,21.8,"23:26:16",1
"17/09/15","23:40",0.0,18.6,79.8,1010.7,319.7,2.7,4.5,306.8,0.00,15.1,21.8,"23:39:28",1
"17/09/15","23:50",0.0,18.6,79.8,1010.2,328.1,3.5,5.8,335.5,0.00,15.1,21.8,"23:41:52",1
"17/09/15","24:00",0.0,18.5,80.3,1010.4,318.4,2.3,4.3,321.6,0.00,15.1,21.8,"23:59:44",1
